CW2654 Weather Reports


Display with metric or nautical units.
time (UTC)temp
F
wind
direction
speed
MPH
gust
MPH
rain 1hr
in
rain 24hr
in
rain mn
in
humidity
%
barometer
mb
20260507093056 50 288 0.0 1.0 0.00 0.00 0.00 88 1021.3
20260507091552 50 0 0.0 2.0 0.00 0.00 0.00 88 1021.3
20260507090051 50 0 0.0 2.0 0.00 0.00 0.00 88 1021.5
20260507084553 51 0 0.0 3.0 0.00 0.00 0.00 88 1021.5
20260507083051 51 0 0.0 3.0 0.00 0.00 0.00 87 1021.5
20260507081553 51 203 0.0 3.0 0.00 0.00 0.00 87 1021.5
20260507080100 51 0 0.0 1.0 0.00 0.00 0.00 87 1021.5
20260507074606 51 0 0.0 1.0 0.00 0.00 0.00 88 1021.5
20260507073052 51 0 0.0 3.0 0.00 0.00 0.00 86 1021.3
20260507071554 52 0 0.0 3.0 0.00 0.00 0.00 87 1021.4
20260507070107 52 263 1.0 6.0 0.00 0.00 0.00 86 1021.4
20260507064604 52 0 0.0 7.0 0.00 0.00 0.00 86 1021.3
20260507063102 52 267 1.0 5.0 0.00 0.00 0.00 86 1021.5
20260507061552 53 258 1.0 6.0 0.00 0.00 0.00 87 1021.3
20260507060054 53 0 0.0 1.0 0.00 0.00 0.00 86 1021.2
20260507054557 53 0 0.0 1.0 0.00 0.00 0.00 87 1021.1
20260507053051 53 0 0.0 1.0 0.00 0.00 0.00 87 1021.1
20260507051555 53 179 0.0 5.0 0.00 0.00 0.00 86 1021.3
20260507050053 54 0 0.0 6.0 0.00 0.00 0.00 85 1021.1
20260507044553 54 0 0.0 6.0 0.00 0.00 0.00 85 1021.1
20260507043057 55 257 0.0 5.0 0.00 0.00 0.00 85 1021.0
20260507041555 55 0 0.0 6.0 0.00 0.00 0.00 85 1021.1
20260507040058 56 0 0.0 3.0 0.00 0.00 0.00 86 1020.7
20260507034550 56 0 0.0 2.0 0.00 0.00 0.00 87 1020.6
20260507033051 56 0 0.0 2.0 0.00 0.00 0.00 86 1020.5
20260507031548 57 0 0.0 2.0 0.00 0.00 0.00 85 1020.3
20260507030054 58 272 0.0 2.0 0.00 0.00 0.00 83 1020.1
20260507024548 59 0 0.0 3.0 0.00 0.00 0.00 82 1020.0
20260507023051 60 0 0.0 2.0 0.00 0.00 0.00 81 1020.0
20260507021552 61 0 1.0 6.0 0.00 0.00 0.00 80 1020.0
20260507020053 61 242 0.0 7.0 0.00 0.00 0.00 81 1020.1
20260507014557 61 0 0.0 3.0 0.00 0.00 0.00 81 1020.2
20260507013108 62 0 0.0 1.0 0.00 0.00 0.00 81 1020.2
20260507011550 62 0 0.0 3.0 0.00 0.00 0.00 80 1020.3
20260507004555 62 320 0.0 3.0 0.00 0.00 0.00 79 1020.3
20260507003053 62 0 0.0 4.0 0.00 0.00 0.00 77 1020.3
20260507001555 62 0 0.0 4.0 0.00 0.00 0.00 77 1020.4
20260507000054 63 348 0.0 4.0 0.00 0.00 0.00 76 1020.3
20260506234555 64 5 0.0 5.0 0.00 0.00 0.00 74 1020.2
20260506233106 63 286 0.0 3.0 0.00 0.00 0.00 76 1020.4
20260506231605 63 0 1.0 6.0 0.00 0.00 0.00 74 1020.4
20260506230103 62 0 0.0 6.0 0.00 0.00 0.00 79 1020.4
20260506224556 62 0 0.0 3.0 0.00 0.00 0.00 79 1020.6
20260506223055 62 345 1.0 4.0 0.00 0.00 0.00 77 1020.7
20260506221559 62 0 1.0 6.0 0.00 0.00 0.00 77 1020.8
20260506220059 63 273 0.0 4.0 0.00 0.00 0.00 78 1020.8
20260506214600 63 0 0.0 4.0 0.00 0.00 0.00 79 1020.7
20260506213056 61 0 0.0 3.0 0.00 0.00 0.00 83 1021.0
20260506211607 61 344 0.0 5.0 0.00 0.00 0.00 81 1021.3
20260506210055 63 0 0.0 6.0 0.00 0.00 0.00 81 1021.2
20260506204556 63 259 0.0 7.0 0.00 0.00 0.00 78 1021.0
20260506203055 63 0 1.0 5.0 0.00 0.00 0.00 80 1021.0
20260506201554 61 0 1.0 4.0 0.00 0.00 0.00 84 1021.1
20260506200051 60 317 1.0 4.0 0.00 0.00 0.00 83 1021.4
20260506194554 60 313 1.0 4.0 0.00 0.00 0.00 84 1021.4
20260506193055 61 266 0.0 7.0 0.00 0.00 0.00 85 1021.4
20260506191552 60 0 1.0 4.0 0.00 0.00 0.00 82 1021.4
20260506190056 59 263 0.0 6.0 0.00 0.00 0.00 85 1021.3
20260506184559 59 223 1.0 6.0 0.00 0.00 0.00 85 1021.4
20260506183053 58 263 0.0 6.0 0.00 0.00 0.00 86 1021.3
20260506181553 58 0 0.0 5.0 0.00 0.00 0.00 88 1021.1
20260506180055 58 0 0.0 5.0 0.00 0.00 0.00 88 1021.2
20260506174554 57 304 0.0 3.0 0.00 0.00 0.00 89 1021.0
20260506173104 56 162 0.0 6.0 0.00 0.00 0.00 89 1021.0
20260506171602 56 258 1.0 6.0 0.00 0.00 0.00 89 1021.0
20260506170059 57 0 1.0 4.0 0.00 0.00 0.00 89 1021.0
20260506164610 57 0 0.0 4.0 0.00 0.00 0.00 91 1020.9
20260506163059 56 0 0.0 3.0 0.00 0.00 0.00 92 1020.5
20260506161555 55 0 0.0 4.0 0.00 0.00 0.00 94 1020.2
20260506160107 54 0 4.0 9.0 0.00 0.00 0.00 94 1020.2
20260506154555 53 0 0.0 2.0 0.00 0.00 0.00 94 1020.8
20260506153101 53 0 0.0 3.0 0.00 0.00 0.00 94 1021.0
20260506151550 54 0 0.0 3.0 0.00 0.00 0.00 93 1021.0
20260506150049 54 0 0.0 1.0 0.00 0.00 0.00 94 1020.7
20260506144551 54 257 0.0 2.0 0.00 0.00 0.00 94 1020.4
20260506143053 54 0 0.0 2.0 0.00 0.00 0.00 94 1020.0
20260506141606 53 267 0.0 3.0 0.00 0.00 0.00 94 1020.1
20260506140050 53 0 0.0 3.0 0.00 0.00 0.00 94 1019.9
20260506134549 53 0 0.0 4.0 0.00 0.00 0.00 94 1019.8
20260506133048 53 0 0.0 4.0 0.00 0.00 0.00 95 1019.5
20260506131555 53 0 0.0 3.0 0.00 0.00 0.00 95 1019.6
20260506130051 53 0 0.0 6.0 0.00 0.00 0.00 95 1019.6
20260506124553 53 0 0.0 1.0 0.00 0.00 0.00 95 1019.5
20260506123051 53 0 0.0 2.0 0.00 0.00 0.00 94 1019.5
20260506121559 54 0 0.0 3.0 0.00 0.00 0.00 94 1019.5
20260506120118 54 0 0.0 3.0 0.00 0.00 0.00 95 1019.1
20260506114550 54 0 0.0 0.0 0.00 0.00 0.00 96 1019.1
20260506113059 54 0 0.0 0.0 0.00 0.00 0.00 95 1018.9
20260506111552 54 0 0.0 0.0 0.00 0.00 0.00 95 1018.6
20260506110056 54 0 0.0 0.0 0.00 0.00 0.00 95 1018.4
20260506104554 54 0 0.0 0.0 0.00 0.00 0.00 95 1018.3
20260506103055 54 0 0.0 0.0 0.00 0.00 0.00 95 1018.0
20260506101554 54 0 0.0 2.0 0.00 0.00 0.00 95 1017.9
20260506100056 54 0 0.0 1.0 0.00 0.00 0.00 95 1017.9
20260506094553 54 0 0.0 1.0 0.00 0.00 0.00 95 1018.1